Regional Weather Roundup
Issued by NWS

Home | Current Version | Previous Version | Text Only | Print | Product List | Glossary Off
Versions: 1 2 3 4 5 6 7 8 9 10 11 12 13 14 15 16 17 18 19 20 21 22 23 24 25 26 27 28 29 30 31 32 33 34 35 36 37 38 39 40 41 42 43 44 45 46 47 48 49 50

439
ASUS44 KMEG 092010
RWRTN
TENNESSEE HOURLY STATE WEATHER ROUNDUP
NATIONAL WEATHER SERVICE MEMPHIS TN
200 PM CST TUE FEB 09 2016

TNZ002-004-019-021-049-052-054-088>092-092100-
WEST TENNESSEE

CITY           SKY/WX    TMP DP  RH WIND       PRES   REMARKS
MEMPHIS INTL   MOSUNNY   40  14  34 NW18G24   30.02R WCI  31
NWS MEMPHIS      N/A     36 N/A N/A MISG        N/A
JACKSON        CLOUDY    29  21  72 N12       30.01R WCI  19
DYERSBURG      CLOUDY    28  16  59 NW9G18    30.05R WCI  20
UNION CITY     CLOUDY    25  18  74 NW13      30.01R WCI  13
PARIS          CLOUDY    21  18  86 NW10      29.98R VSB 1   WCI  10
$$

TNZ008-025-027-028-033-062-065-066-092100-
NORTH MIDDLE TENNESSEE

CITY           SKY/WX    TMP DP  RH WIND       PRES   REMARKS
NASHVILLE      LGT SNOW  25  16  68 NW13      29.94R VSB 1   WCI  13
CLARKSVILLE    CLOUDY    25  14  63 NW14G23   29.95R WCI  13
SMYRNA         FLURRIES  24  18  78 NW14      29.95R WCI  12
COOKEVILLE     CLOUDY    27  19  74 NW6       29.85R WCI  20
CROSSVILLE     LGT SNOW  23  15  71 NW9       29.79R WCI  13
$$

TNZ061-075-076-078-094-096-097-092100-
SOUTH MIDDLE TENNESSEE

CITY           SKY/WX    TMP DP  RH WIND       PRES   REMARKS
TULLAHOMA      CLOUDY    25  19  80 W13       29.89R WCI  13
WINCHESTER     CLOUDY    27  18  69 W14       29.90R WCI  15
MCMINNVILLE    PTSUNNY   25  21  86 NW9       29.86R WCI  15
COLUMBIA       CLOUDY    27  23  86 NW8       29.93R WCI  18
SHELBYVILLE    CLOUDY    28  18  64 NW15      29.92R WCI  17
$$

TNZ017-018-042-046-047-092100-
NORTHEAST TENNESSEE

CITY           SKY/WX    TMP DP  RH WIND       PRES   REMARKS
TRI CITIES     CLOUDY    25  13  60 W14       29.75R WCI  13
$$

TNZ012-013-036-069-073-074-092100-
CENTRAL EAST TENNESSEE

CITY           SKY/WX    TMP DP  RH WIND       PRES   REMARKS
KNOXVILLE      CLOUDY    29  15  56 W17       29.82S WCI  17
OAK RIDGE      CLOUDY    30  14  51 W9        29.84R WCI  22
GATLINBURG     CLOUDY    27  18  69 W6        29.80F WCI  20
MORRISTOWN     MOCLDY    27  19  74 W10G17    29.78R WCI  17
$$

TNZ083-085-099-092100-
SOUTHEAST TENNESSEE

CITY           SKY/WX    TMP DP  RH WIND       PRES   REMARKS
CHATTANOOGA    LGT SNOW  30  25  81 W5        29.87R FOG     WCI  25
$$

SKY/WX REPORTED AS FAIR MEANS FEW OR NO CLOUDS BELOW
12 THOUSAND FEET.





USA.gov is the U.S. government's official web portal to all federal, state and local government web resources and services.